This is the latest recevied weather packets stored in our database for station/object KF6YUA. If no packets are shown the sender has not sent any weather packets the latest 10 day(s).
| Time | Temp. | Humidity | Pressure | Rain* | Wind** | Luminosity | Snow |
|---|---|---|---|---|---|---|---|
| 1777069815 | 16.67° C | 70% | 1014.6 hPa | 0 mm | - | 290 W/m² | - |
| 1777069513 | 17.22° C | 69% | 1014.6 hPa | 0 mm | - | 488 W/m² | - |
| 1777069211 | 17.78° C | 71% | 1014.8 hPa | 0 mm | - | 532 W/m² | - |
| 1777068907 | 17.78° C | 68% | 1015.1 hPa | 0 mm | - | 542 W/m² | - |
| 1777068603 | 17.78° C | 72% | 1015 hPa | 0 mm | - | 588 W/m² | - |
| 1777068302 | 17.22° C | 73% | 1015 hPa | 0 mm | - | 607 W/m² | - |
| 1777067997 | 17.22° C | 71% | 1014.8 hPa | 0 mm | - | 584 W/m² | - |
| 1777067696 | 17.22° C | 73% | 1015.1 hPa | 0 mm | - | 610 W/m² | - |
| 1777067391 | 17.22° C | 72% | 1014.9 hPa | 0 mm | - | 422 W/m² | - |
| 1777067085 | 17.78° C | 70% | 1014.9 hPa | 0 mm | - | 412 W/m² | - |
| 1777066780 | 17.22° C | 74% | 1014.9 hPa | 0 mm | - | 658 W/m² | - |
| 1777066477 | 16.67° C | 72% | 1015 hPa | 0 mm | - | 466 W/m² | - |
| 1777066172 | 16.67° C | 70% | 1015.1 hPa | 0 mm | - | 619 W/m² | - |
| 1777065871 | 17.78° C | 71% | 1015.4 hPa | 0 mm | - | 676 W/m² | - |
| 1777065567 | 17.22° C | 71% | 1015.1 hPa | 0 mm | - | 674 W/m² | - |
| 1777065261 | 17.78° C | 70% | 1015.1 hPa | 0 mm | - | 614 W/m² | - |
| 1777064958 | 17.22° C | 72% | 1015.3 hPa | 0 mm | - | 667 W/m² | - |
| 1777064655 | 17.78° C | 71% | 1015.2 hPa | 0 mm | - | 648 W/m² | - |
| 1777064351 | 17.22° C | 71% | 1015.1 hPa | 0 mm | - | 621 W/m² | - |
| 1777064048 | 17.22° C | 71% | 1015.3 hPa | 0 mm | - | 603 W/m² | - |
| 1777063747 | 16.67° C | 71% | 1015.3 hPa | 0 mm | - | 574 W/m² | - |
| 1777063443 | 17.22° C | 68% | 1015.3 hPa | 0 mm | - | 526 W/m² | - |
| 1777063139 | 17.22° C | 72% | 1015.1 hPa | 0 mm | - | 555 W/m² | - |
| 1777062836 | 16.67° C | 72% | 1015.4 hPa | 0 mm | - | 577 W/m² | - |
| 1777062531 | 16.67° C | 71% | 1015.3 hPa | 0 mm | - | 542 W/m² | - |
* Rain latest hour (hover to see other rain measurements)
** Current wind speed in m/s (hover to see current wind gust speed)